Time,TemperatureF,DewpointF,PressureIn,WindDirection,WindDirectionDegrees,WindSpeedMPH,WindSpeedGustMPH,Humidity,HourlyPrecipIn,Conditions,Clouds,dailyrainin,SoftwareType,DateUTC
2013-12-09 00:11:00,14.0,10.3,30.05,ESE,112,0.0,-999.0,85,-99.99,,,0.00,Acu-Link.com,2013-12-09 08:11:00,
2013-12-09 00:26:00,14.0,10.3,30.04,East,90,0.0,-999.0,85,-99.99,,,0.00,Acu-Link.com,2013-12-09 08:26:00,
2013-12-09 00:41:00,14.0,10.3,30.04,ENE,67,0.0,-999.0,85,-99.99,,,0.00,Acu-Link.com,2013-12-09 08:41:00,
2013-12-09 00:57:00,12.2,8.6,30.04,SE,135,0.0,-999.0,85,-99.99,,,0.00,Acu-Link.com,2013-12-09 08:57:00,
2013-12-09 01:12:00,12.2,8.6,30.04,South,180,0.0,-999.0,85,-99.99,,,0.00,Acu-Link.com,2013-12-09 09:12:00,
2013-12-09 01:27:00,12.2,8.6,30.04,SE,135,0.0,-999.0,85,-99.99,,,0.00,Acu-Link.com,2013-12-09 09:27:00,
2013-12-09 01:42:00,12.2,8.6,30.03,SSE,157,0.0,-999.0,85,-99.99,,,0.00,Acu-Link.com,2013-12-09 09:42:00,
2013-12-09 01:58:00,12.2,8.6,30.03,ESE,112,0.0,-999.0,85,-99.99,,,0.00,Acu-Link.com,2013-12-09 09:58:00,
2013-12-09 02:13:00,12.2,8.6,30.03,ESE,112,0.0,-999.0,85,-99.99,,,0.00,Acu-Link.com,2013-12-09 10:13:00,
2013-12-09 02:28:00,12.2,8.6,30.04,SSE,157,0.0,-999.0,85,-99.99,,,0.00,Acu-Link.com,2013-12-09 10:28:00,
2013-12-09 02:43:00,12.2,8.6,30.03,SE,135,0.0,-999.0,85,-99.99,,,0.00,Acu-Link.com,2013-12-09 10:43:00,
2013-12-09 02:58:00,12.2,8.6,30.03,SE,135,0.0,-999.0,85,-99.99,,,0.00,Acu-Link.com,2013-12-09 10:58:00,
2013-12-09 03:14:00,12.2,8.6,30.04,ESE,112,0.0,-999.0,85,-99.99,,,0.00,Acu-Link.com,2013-12-09 11:14:00,
2013-12-09 03:29:00,12.2,8.6,30.04,ESE,112,0.0,-999.0,85,-99.99,,,0.00,Acu-Link.com,2013-12-09 11:29:00,
2013-12-09 03:44:00,12.2,8.6,30.04,SE,135,0.0,-999.0,85,-99.99,,,0.00,Acu-Link.com,2013-12-09 11:44:00,
2013-12-09 03:59:00,12.2,8.6,30.04,SE,135,0.0,-999.0,85,-99.99,,,0.00,Acu-Link.com,2013-12-09 11:59:00,
2013-12-09 04:14:00,12.2,8.6,30.05,SSE,157,0.0,-999.0,85,-99.99,,,0.00,Acu-Link.com,2013-12-09 12:14:00,
2013-12-09 04:29:00,12.2,8.6,30.05,East,90,0.0,-999.0,85,-99.99,,,0.00,Acu-Link.com,2013-12-09 12:29:00,
2013-12-09 04:45:00,12.2,8.6,30.04,SE,135,0.0,-999.0,85,-99.99,,,0.00,Acu-Link.com,2013-12-09 12:45:00,
2013-12-09 05:00:00,12.2,8.6,30.04,East,90,0.0,-999.0,85,-99.99,,,0.00,Acu-Link.com,2013-12-09 13:00:00,
2013-12-09 05:17:00,12.2,8.6,30.05,NE,45,0.0,-999.0,85,-99.99,,,0.00,Acu-Link.com,2013-12-09 13:17:00,
2013-12-09 05:32:00,12.2,8.6,30.05,SSE,157,0.0,-999.0,85,-99.99,,,0.00,Acu-Link.com,2013-12-09 13:32:00,
2013-12-09 05:47:00,12.2,8.6,30.05,SSE,157,0.0,-999.0,85,-99.99,,,0.00,Acu-Link.com,2013-12-09 13:47:00,
2013-12-09 06:02:00,14.0,10.3,30.06,WSW,247,0.0,-999.0,85,-99.99,,,0.00,Acu-Link.com,2013-12-09 14:02:00,
2013-12-09 06:17:00,14.0,10.3,30.05,South,180,0.0,-999.0,85,-99.99,,,0.00,Acu-Link.com,2013-12-09 14:17:00,
2013-12-09 06:33:00,14.0,10.3,30.05,East,90,0.0,-999.0,85,-99.99,,,0.00,Acu-Link.com,2013-12-09 14:33:00,
2013-12-09 06:48:00,14.0,10.3,30.05,South,180,0.0,-999.0,85,-99.99,,,0.00,Acu-Link.com,2013-12-09 14:48:00,
2013-12-09 07:03:00,14.0,10.3,30.06,SE,135,0.0,-999.0,85,-99.99,,,0.00,Acu-Link.com,2013-12-09 15:03:00,
2013-12-09 07:18:00,14.0,10.3,30.06,ESE,112,0.0,-999.0,85,-99.99,,,0.00,Acu-Link.com,2013-12-09 15:18:00,
2013-12-09 07:33:00,14.0,10.3,30.05,SSE,157,0.0,-999.0,85,-99.99,,,0.00,Acu-Link.com,2013-12-09 15:33:00,
2013-12-09 07:48:00,12.2,8.6,30.05,ESE,112,0.0,-999.0,85,-99.99,,,0.00,Acu-Link.com,2013-12-09 15:48:00,
2013-12-09 08:03:00,12.2,8.6,30.05,ESE,112,0.0,-999.0,85,-99.99,,,0.00,Acu-Link.com,2013-12-09 16:03:00,
2013-12-09 08:34:00,14.0,10.3,30.05,ESE,112,0.0,-999.0,85,-99.99,,,0.00,Acu-Link.com,2013-12-09 16:34:00,
2013-12-09 08:49:00,14.0,10.3,30.06,ESE,112,0.0,-999.0,85,-99.99,,,0.00,Acu-Link.com,2013-12-09 16:49:00,
2013-12-09 09:04:00,14.0,10.1,30.06,ESE,112,1.1,-999.0,84,-99.99,,,0.00,Acu-Link.com,2013-12-09 17:04:00,
2013-12-09 09:19:00,15.8,11.8,30.06,South,180,0.0,-999.0,84,-99.99,,,0.00,Acu-Link.com,2013-12-09 17:19:00,
2013-12-09 09:34:00,17.6,13.3,30.06,SSE,157,0.0,-999.0,83,-99.99,,,0.00,Acu-Link.com,2013-12-09 17:34:00,
2013-12-09 09:49:00,17.6,13.3,30.06,South,180,0.0,-999.0,83,-99.99,,,0.00,Acu-Link.com,2013-12-09 17:49:00,
2013-12-09 10:04:00,17.6,13.1,30.06,South,180,0.0,-999.0,82,-99.99,,,0.00,Acu-Link.com,2013-12-09 18:04:00,
2013-12-09 10:20:00,17.6,13.1,30.06,ESE,112,0.0,-999.0,82,-99.99,,,0.00,Acu-Link.com,2013-12-09 18:20:00,
2013-12-09 10:35:00,19.4,14.8,30.06,SE,135,0.0,-999.0,82,-99.99,,,0.00,Acu-Link.com,2013-12-09 18:35:00,
2013-12-09 10:50:00,19.4,15.1,30.06,East,90,0.0,-999.0,83,-99.99,,,0.00,Acu-Link.com,2013-12-09 18:50:00,
2013-12-09 11:05:00,19.4,15.1,30.05,East,90,0.0,-999.0,83,-99.99,,,0.00,Acu-Link.com,2013-12-09 19:05:00,
2013-12-09 11:20:00,19.4,15.1,30.05,ESE,112,0.0,-999.0,83,-99.99,,,0.00,Acu-Link.com,2013-12-09 19:20:00,
2013-12-09 11:35:00,19.4,15.1,30.05,NNE,22,0.0,-999.0,83,-99.99,,,0.00,Acu-Link.com,2013-12-09 19:35:00,
2013-12-09 11:50:00,21.2,16.9,30.05,ESE,112,0.0,-999.0,83,-99.99,,,0.00,Acu-Link.com,2013-12-09 19:50:00,
2013-12-09 12:06:00,21.2,16.3,30.06,SSE,157,0.0,-999.0,81,-99.99,,,0.00,Acu-Link.com,2013-12-09 20:06:00,
2013-12-09 12:21:00,21.2,16.6,30.05,SE,135,1.1,-999.0,82,-99.99,,,0.00,Acu-Link.com,2013-12-09 20:21:00,
2013-12-09 12:36:00,21.2,16.6,30.05,SE,135,0.0,-999.0,82,-99.99,,,0.00,Acu-Link.com,2013-12-09 20:36:00,
2013-12-09 12:51:00,21.2,16.9,30.05,NE,45,1.1,-999.0,83,-99.99,,,0.00,Acu-Link.com,2013-12-09 20:51:00,
2013-12-09 13:06:00,21.2,16.9,30.04,ESE,112,0.0,-999.0,83,-99.99,,,0.00,Acu-Link.com,2013-12-09 21:06:00,
2013-12-09 13:21:00,21.2,16.9,30.04,SE,135,1.6,-999.0,83,-99.99,,,0.00,Acu-Link.com,2013-12-09 21:21:00,
2013-12-09 13:36:00,21.2,17.1,30.03,ESE,112,1.1,-999.0,84,-99.99,,,0.00,Acu-Link.com,2013-12-09 21:36:00,
2013-12-09 13:52:00,23.0,18.6,30.03,East,90,1.1,-999.0,83,-99.99,,,0.00,Acu-Link.com,2013-12-09 21:52:00,
2013-12-09 14:07:00,23.0,18.6,30.03,East,90,1.6,-999.0,83,-99.99,,,0.00,Acu-Link.com,2013-12-09 22:07:00,
2013-12-09 14:22:00,21.2,16.9,30.02,ESE,112,1.6,-999.0,83,-99.99,,,0.00,Acu-Link.com,2013-12-09 22:22:00,
2013-12-09 14:37:00,21.2,16.6,30.02,ESE,112,0.0,-999.0,82,-99.99,,,0.00,Acu-Link.com,2013-12-09 22:37:00,
2013-12-09 14:52:00,21.2,17.1,30.02,ESE,112,1.1,-999.0,84,-99.99,,,0.00,Acu-Link.com,2013-12-09 22:52:00,
2013-12-09 15:07:00,21.2,17.1,30.02,ESE,112,0.0,-999.0,84,-99.99,,,0.00,Acu-Link.com,2013-12-09 23:07:00,
2013-12-09 15:22:00,21.2,17.1,30.03,East,90,0.0,-999.0,84,-99.99,,,0.00,Acu-Link.com,2013-12-09 23:22:00,
2013-12-09 15:37:00,19.4,15.6,30.02,ESE,112,0.0,-999.0,85,-99.99,,,0.00,Acu-Link.com,2013-12-09 23:37:00,
2013-12-09 15:53:00,19.4,15.6,30.02,ESE,112,1.6,-999.0,85,-99.99,,,0.00,Acu-Link.com,2013-12-09 23:53:00,
2013-12-09 16:08:00,17.6,13.9,30.02,SSE,157,1.6,-999.0,85,-99.99,,,0.00,Acu-Link.com,2013-12-10 00:08:00,
2013-12-09 16:23:00,17.6,14.1,30.03,East,90,0.0,-999.0,86,-99.99,,,0.00,Acu-Link.com,2013-12-10 00:23:00,
2013-12-09 16:38:00,17.6,14.1,30.03,SSE,157,0.0,-999.0,86,-99.99,,,0.00,Acu-Link.com,2013-12-10 00:38:00,
2013-12-09 16:53:00,17.6,14.1,30.02,ESE,112,0.0,-999.0,86,-99.99,,,0.00,Acu-Link.com,2013-12-10 00:53:00,
2013-12-09 17:08:00,17.6,14.4,30.02,ESE,112,1.6,-999.0,87,-99.99,,,0.00,Acu-Link.com,2013-12-10 01:08:00,
2013-12-09 17:24:00,17.6,14.4,30.01,ESE,112,0.0,-999.0,87,-99.99,,,0.00,Acu-Link.com,2013-12-10 01:24:00,
2013-12-09 17:39:00,17.6,14.4,30.02,ESE,112,0.0,-999.0,87,-99.99,,,0.00,Acu-Link.com,2013-12-10 01:39:00,
2013-12-09 17:54:00,17.6,14.4,30.01,ESE,112,0.0,-999.0,87,-99.99,,,0.00,Acu-Link.com,2013-12-10 01:54:00,
2013-12-09 18:09:00,17.6,14.4,30.00,ESE,112,0.0,-999.0,87,-99.99,,,0.00,Acu-Link.com,2013-12-10 02:09:00,
2013-12-09 18:25:00,17.6,14.7,30.00,ESE,112,0.0,-999.0,88,-99.99,,,0.00,Acu-Link.com,2013-12-10 02:25:00,
2013-12-09 18:40:00,17.6,14.7,30.00,ESE,112,0.0,-999.0,88,-99.99,,,0.00,Acu-Link.com,2013-12-10 02:40:00,
2013-12-09 18:57:00,17.6,14.7,30.00,East,90,0.0,-999.0,88,-99.99,,,0.00,Acu-Link.com,2013-12-10 02:57:00,
2013-12-09 19:13:00,17.6,14.7,29.99,ESE,112,0.0,-999.0,88,-99.99,,,0.00,Acu-Link.com,2013-12-10 03:13:00,
2013-12-09 19:28:00,17.6,14.9,29.99,East,90,0.0,-999.0,89,-99.99,,,0.00,Acu-Link.com,2013-12-10 03:28:00,
2013-12-09 19:43:00,17.6,14.9,29.99,NE,45,0.0,-999.0,89,-99.99,,,0.00,Acu-Link.com,2013-12-10 03:43:00,
2013-12-09 19:58:00,17.6,14.9,29.99,East,90,0.0,-999.0,89,-99.99,,,0.00,Acu-Link.com,2013-12-10 03:58:00,
2013-12-09 20:14:00,17.6,14.7,29.99,ESE,112,0.0,-999.0,88,-99.99,,,0.00,Acu-Link.com,2013-12-10 04:14:00,
2013-12-09 20:29:00,17.6,14.7,29.99,East,90,0.0,-999.0,88,-99.99,,,0.00,Acu-Link.com,2013-12-10 04:29:00,
2013-12-09 20:44:00,17.6,14.7,29.98,East,90,0.0,-999.0,88,-99.99,,,0.00,Acu-Link.com,2013-12-10 04:44:00,
2013-12-09 20:59:00,17.6,14.7,29.99,SW,225,0.0,-999.0,88,-99.99,,,0.00,Acu-Link.com,2013-12-10 04:59:00,
2013-12-09 21:15:00,17.6,14.7,29.98,ESE,112,0.0,-999.0,88,-99.99,,,0.00,Acu-Link.com,2013-12-10 05:15:00,
2013-12-09 21:31:00,17.6,14.7,29.99,NNE,22,0.0,-999.0,88,-99.99,,,0.00,Acu-Link.com,2013-12-10 05:31:00,
2013-12-09 21:46:00,17.6,14.7,29.99,West,270,0.0,-999.0,88,-99.99,,,0.00,Acu-Link.com,2013-12-10 05:46:00,
2013-12-09 22:01:00,17.6,14.7,29.98,ESE,112,0.0,-999.0,88,-99.99,,,0.00,Acu-Link.com,2013-12-10 06:01:00,
2013-12-09 22:16:00,19.4,16.4,29.99,WSW,247,0.0,-999.0,88,-99.99,,,0.00,Acu-Link.com,2013-12-10 06:16:00,
2013-12-09 22:32:00,19.4,16.4,29.99,NE,45,0.0,-999.0,88,-99.99,,,0.00,Acu-Link.com,2013-12-10 06:32:00,
2013-12-09 22:47:00,19.4,16.4,29.99,SE,135,0.0,-999.0,88,-99.99,,,0.00,Acu-Link.com,2013-12-10 06:47:00,
2013-12-09 23:02:00,19.4,16.4,29.99,SE,135,0.0,-999.0,88,-99.99,,,0.00,Acu-Link.com,2013-12-10 07:02:00,
2013-12-09 23:17:00,19.4,16.4,29.99,SW,225,0.0,-999.0,88,-99.99,,,0.00,Acu-Link.com,2013-12-10 07:17:00,
2013-12-09 23:32:00,19.4,16.4,29.99,SE,135,0.0,-999.0,88,-99.99,,,0.00,Acu-Link.com,2013-12-10 07:32:00,
2013-12-09 23:48:00,19.4,16.4,30.00,West,270,0.0,-999.0,88,-99.99,,,0.00,Acu-Link.com,2013-12-10 07:48:00,